Lid_Strength_Index
0 -0 -0 -0 -1 -1 -2 -2 -2 -2 -2 -2 -2 -1 -2 -2 -1 -1 -1 -1 -1 -1 -1 -1 -1 2 3 6 6 3 2 3 3 3 3 3 5 6 7 7 6 8 9 9 9 9 9
0 -0 -0 -0 -0 -1 -2 -2 -2 -2 -2 -2 -2 -1 -2 -2 -1 -1 -1 -1 -1 -2 -1 -1 1 2 6 9 3 3 4 4 3 4 3 3 5 5 7 8 8 7 8 9 9 9 9
-0 0 -0 -0 0 -1 -2 -2 -2 -1 -2 -2 -2 -1 -1 -1 -1 -1 -1 -1 -1 -1 -1 -0 2 3 6 7 3 3 4 5 5 4 4 4 4 6 6 9 7 8 10 9 9 10 10
-1 -0 0 0 -0 -1 -1 -2 -2 -2 -2 -2 -2 -1 -1 -1 -1 -1 -1 -1 -1 -1 -1 -0 0 4 8 4 2 3 3 4 4 4 4 4 4 6 7 7 9 10 9 11 10 9 9
-0 -1 -0 0 -0 -0 -0 -1 -2 -2 -2 -2 -2 -1 -1 -1 -2 -1 -2 -1 -1 -1 -1 -0 3 5 9 2 5 3 3 6 5 6 5 5 5 7 8 9 10 10 11 11 11 9 9
0 -0 -0 0 1 -0 0 -0 -1 -1 -2 -2 -2 -1 -1 -1 -2 -2 -2 -2 -1 -0 1 2 4 7 6 7 4 4 3 5 6 6 7 6 6 8 8 8 13 12 12 12 11 10 10
1 0 0 -0 0 0 0 0 0 -1 -1 -1 -1 -2 -1 -2 -1 -1 -1 0 3 6 5 7 8 7 7 4 3 4 4 6 6 7 10 8 8 10 10 11 11 10 11 12 12 11 12
3 1 1 0 0 0 0 0 0 0 -0 -1 -1 -1 -1 -1 -1 -1 -0 3 4 4 9 6 6 6 5 4 7 5 4 8 8 10 10 9 12 11 10 10 11 11 12 13 13 12 12
4 2 1 1 1 1 0 0 0 1 1 1 -0 -0 0 1 1 1 3 3 1 3 8 8 6 7 7 5 7 7 5 7 9 10 10 11 12 11 11 12 12 12 12 13 13 12 12
2 4 2 1 1 1 1 1 1 0 1 1 1 0 1 1 3 2 4 3 2 3 10 10 9 7 6 6 8 5 5 7 9 10 11 12 11 12 12 13 12 13 12 12 13 12 13
1 3 4 2 1 1 1 1 1 1 1 1 1 1 2 1 3 4 4 2 2 4 18 9 8 5 6 8 8 7 5 6 9 10 10 13 12 12 13 13 11 12 11 11 11 11 12
1 1 3 4 2 2 2 2 1 1 1 1 2 1 1 2 2 3 2 3 5 12 18 11 9 9 9 8 8 7 7 6 7 9 9 11 9 10 10 9 9 9 10 11 11 12 17
1 1 1 3 3 2 2 2 2 2 2 1 2 2 2 2 4 2 3 5 13 16 11 12 11 9 10 10 10 9 10 10 10 14 14 11 11 9 8 10 9 10 11 17 18 19 16
1 1 1 1 3 3 2 2 2 2 2 2 2 4 3 3 2 2 4 7 17 13 12 10 10 9 11 10 10 10 11 11 10 10 12 14 15 11 9 10 11 12 12 16 19 16 14
1 1 1 1 1 4 4 2 2 2 2 2 3 2 2 2 2 3 6 13 14 11 10 10 10 11 11 10 10 10 11 11 11 10 12 13 14 10 10 10 10 12 12 11 14 16 16
1 1 1 1 1 2 4 4 2 2 2 2 3 3 3 3 2 4 7 12 11 9 9 9 12 11 12 11 11 11 12 11 11 10 9 12 14 12 11 9 9 10 10 13 12 18 17
1 1 1 1 1 2 2 3 4 3 3 2 4 5 3 2 3 6 11 11 10 8 8 10 11 11 10 11 10 11 11 10 10 10 9 11 11 13 11 11 11 12 12 12 12 14 16
1 1 1 1 1 1 2 2 3 5 3 5 3 7 3 3 6 7 9 9 9 9 7 8 9 9 10 10 11 11 11 10 8 8 10 9 11 13 12 11 10 10 11 11 14 15 14
1 1 1 1 1 2 2 3 2 3 6 5 5 6 3 5 10 9 9 9 8 9 9 9 10 9 9 10 12 10 10 8 8 9 10 9 12 15 15 13 11 12 11 11 11 13 15
1 1 1 1 1 2 2 3 2 3 5 6 8 8 6 5 6 8 10 10 10 8 8 8 9 8 9 10 10 11 10 9 8 9 9 9 11 13 14 15 11 13 12 12 12 15 15
2 2 1 1 2 2 2 3 3 3 4 5 7 10 10 8 9 9 9 9 10 10 8 8 9 9 10 11 11 11 10 10 9 8 8 9 13 12 12 12 13 14 13 13 14 13 15
2 2 2 2 2 2 2 2 3 4 3 4 6 7 9 10 11 10 10 10 11 10 9 10 11 10 9 11 11 12 10 10 10 9 10 9 13 13 15 12 13 14 13 13 13 13 13
2 2 2 2 2 2 2 2 3 4 5 4 6 6 7 11 11 12 12 11 11 9 9 9 9 10 10 10 9 9 9 9 9 10 10 11 12 14 16 14 14 16 14 14 13 13 13
2 2 2 2 2 2 2 2 3 4 4 4 5 6 7 10 10 11 11 11 12 11 12 10 9 10 9 7 8 9 9 10 10 10 9 12 13 13 16 15 19 15 12 12 12 12 11
2 2 2 2 3 3 2 3 3 4 5 5 5 6 6 8 9 11 10 10 10 11 11 12 11 10 9 10 12 13 14 14 13 12 11 11 12 15 17 16 14 13 14 14 14 14 12
3 3 3 3 3 3 3 3 3 4 5 4 6 6 6 7 9 10 11 10 10 10 11 11 10 9 10 12 14 16 17 16 16 16 13 12 12 14 16 18 18 15 13 12 13 17 14
4 3 3 3 3 3 3 3 3 3 5 4 5 6 6 7 7 9 9 10 10 10 10 11 10 10 10 13 15 15 16 16 18 18 18 17 16 18 17 18 16 13 13 13 17 17 13
4 3 4 4 3 3 3 3 3 4 4 4 5 5 6 7 7 9 9 10 10 10 10 11 11 11 11 13 13 13 15 15 16 15 16 16 17 17 16 17 19 12 13 15 14 12 13
4 4 4 4 4 3 3 4 4 4 5 5 5 5 6 7 8 9 9 9 10 10 10 10 11 11 10 12 12 12 14 14 14 15 14 16 14 14 14 14 12 11 12 11 12 13 12